Temp
43 43 46 48 46 46 46 46 43 46 44 51 53 51 49 49 49 49 49 49 49 49 51 52 50 51 51 50 50 49 49 48 48 47 47 47 46 45 45 45 45 44 44 44
40 42 42 43 47 46 45 45 45 45 46 54 51 50 47 48 48 48 49 50 50 50 51 51 51 51 50 49 49 48 47 47 48 46 46 46 45 44 44 45 45 44 43 42
36 37 38 37 42 46 45 47 49 43 52 49 47 47 49 48 49 49 50 51 51 50 51 51 51 50 50 50 49 47 46 47 46 45 45 45 44 44 44 44 44 43 41 41
35 31 33 48 49 49 47 48 49 48 49 50 50 49 51 53 50 49 50 51 51 52 52 52 52 50 49 49 47 46 46 46 46 45 44 44 43 43 43 44 43 43 41 40
34 34 39 47 45 45 45 49 51 50 50 47 46 49 50 52 52 53 52 52 53 54 53 51 51 50 48 47 46 45 45 46 46 45 44 43 43 43 43 42 42 41 40 38
31 33 31 44 49 51 52 42 52 50 47 44 48 43 53 52 52 51 52 52 51 51 50 49 49 48 46 46 45 45 45 46 46 45 44 43 43 43 42 42 41 40 36 36
26 33 37 46 50 52 41 45 49 49 48 45 47 52 52 50 48 52 51 48 46 48 48 49 48 46 45 45 44 45 45 44 45 45 43 43 43 42 41 40 38 35 33 34
27 30 33 48 50 44 51 50 50 49 49 47 51 48 49 47 47 48 47 46 47 47 47 45 46 45 44 43 45 44 43 43 43 43 42 42 42 41 39 38 36 33 30 31
39 40 48 50 50 52 51 51 52 50 51 50 48 47 47 46 46 46 47 46 47 47 45 45 45 44 43 44 42 41 41 41 41 41 41 41 40 39 37 36 35 33 33 32
40 48 46 48 52 52 54 53 53 52 53 49 49 48 45 44 44 45 46 46 45 44 43 42 43 42 41 40 40 39 38 38 39 39 39 41 40 40 37 35 35 34 34 33
41 46 48 51 51 54 54 51 51 51 51 49 49 46 45 44 41 41 41 40 43 42 41 41 41 40 40 39 38 37 37 38 37 37 38 38 39 39 37 38 38 36 35 34
41 51 51 51 55 54 52 53 53 50 46 46 47 44 44 42 43 41 39 41 40 40 40 39 38 38 38 38 37 36 35 38 37 36 36 37 35 37 34 34 32 33 32 31
52 52 51 52 53 54 52 52 50 48 47 45 45 44 43 40 38 37 40 40 40 40 39 38 37 36 37 37 36 35 35 36 37 34 34 34 34 34 35 35 33 33 34 33
51 50 49 50 51 49 48 45 45 45 44 42 41 41 38 36 36 38 39 40 39 38 37 36 36 35 37 38 37 36 36 33 35 35 36 35 35 34 33 33 32 33 33 32
47 49 49 46 45 44 45 44 41 40 40 40 39 37 36 35 36 38 38 38 37 37 36 36 35 36 38 38 37 36 37 37 35 34 34 33 32 32 33 31 31 31 33 30
44 43 43 41 41 41 41 38 35 35 36 37 36 37 38 38 39 39 37 37 33 34 37 32 30 36 37 37 37 37 37 34 34 35 33 33 33 33 33 33 33 32 32 32
42 38 37 36 36 36 36 38 36 36 37 38 38 37 39 36 33 35 35 32 31 30 31 30 31 37 35 36 36 37 37 36 34 33 33 33 33 33 33 33 32 33 33 32
41 40 40 38 36 35 35 36 37 37 37 39 33 32 32 30 32 32 31 29 27 27 30 32 32 34 35 37 36 35 34 34 33 32 32 32 33 33 33 33 32 31 32 32
40 39 39 38 39 38 37 36 34 34 33 32 31 32 30 30 30 30 29 26 26 28 34 33 32 32 33 34 34 34 33 32 32 32 32 31 31 32 31 31 31 31 31 31
40 40 39 38 35 32 33 32 32 33 33 31 29 30 30 31 29 27 28 27 31 34 33 33 32 32 32 34 32 35 33 32 33 32 32 31 30 30 30 29 30 30 30 31
37 35 33 32 31 31 31 30 29 31 31 28 28 29 28 29 29 27 30 31 35 33 33 30 32 34 36 34 35 33 33 33 33 32 32 31 31 30 30 31 31 30 31 31
37 33 30 29 28 31 29 29 30 29 29 29 27 25 24 28 30 29 29 32 38 32 34 35 35 34 34 32 34 32 33 33 33 33 32 32 31 31 31 31 31 31 31 31
35 33 31 29 29 30 30 30 27 28 27 27 27 28 29 31 32 31 32 37 35 35 34 34 33 32 32 32 32 33 33 32 32 32 33 32 32 31 31 31 31 31 31 31
33 33 31 28 27 29 28 29 29 30 30 31 32 32 30 29 31 34 34 33 34 34 34 34 34 33 32 33 33 33 32 31 28 27 28 28 28 28 29 29 29 30 30 30
30 30 29 28 27 27 28 29 29 30 30 31 31 33 34 34 29 31 32 32 33 33 33 34 34 33 31 29 27 25 24 22 19 19 18 18 18 18 18 18 17 18 20 24
29 29 29 28 27 26 25 25 23 25 25 25 27 29 29 30 31 32 33 33 34 34 33 29 27 25 24 22 21 19 18 17 16 16 15 15 15 15 14 14 14 14 14 15
27 25 25 25 24 22 20 20 18 19 21 21 21 24 24 26 27 28 28 29 31 29 24 22 19 18 18 17 16 15 15 14 12 12 12 12 12 12 12 12 12 13 14 14
MSLP
1018.11 1017.96 1017.58 1017.22 1017.19 1017.40 1017.55 1017.50 1017.65 1016.99 1017.00 1016.67 1017.02 1017.56 1018.56 1019.44 1020.10 1020.69 1021.34 1022.03 1022.53 1022.97 1023.38 1023.64 1024.09 1024.52 1025.15 1025.62 1026.08 1026.40 1026.45 1026.63 1026.68 1026.72 1026.68 1026.55 1026.39 1026.18 1025.92 1025.63 1025.33 1025.31 1025.16 1024.98
1019.20 1018.84 1018.32 1017.75 1017.27 1017.33 1017.35 1017.25 1017.03 1016.80 1016.39 1016.16 1016.91 1017.74 1018.68 1019.14 1019.83 1020.30 1020.84 1021.42 1021.99 1022.53 1022.88 1023.45 1024.00 1024.48 1024.91 1025.37 1025.83 1026.08 1026.28 1026.32 1026.39 1026.48 1026.37 1026.21 1026.12 1025.90 1025.57 1025.29 1025.09 1025.04 1024.93 1024.81
1020.01 1019.51 1018.82 1018.17 1016.44 1016.39 1016.49 1016.34 1016.14 1016.30 1015.57 1016.40 1017.04 1017.52 1017.73 1018.52 1019.28 1019.78 1020.27 1020.78 1021.30 1021.74 1022.30 1022.92 1023.61 1024.17 1024.59 1025.07 1025.47 1025.77 1025.93 1025.94 1025.96 1025.98 1025.87 1025.84 1025.77 1025.47 1025.19 1024.97 1024.84 1024.72 1024.81 1024.93
1020.76 1020.34 1018.94 1016.21 1015.90 1015.87 1015.86 1015.59 1015.59 1015.63 1015.77 1016.26 1016.77 1017.27 1017.65 1018.09 1018.57 1019.13 1019.72 1020.17 1020.64 1021.23 1021.88 1022.58 1023.35 1023.96 1024.49 1024.80 1025.11 1025.35 1025.44 1025.42 1025.44 1025.45 1025.44 1025.38 1025.31 1025.03 1024.77 1024.60 1024.43 1024.37 1024.50 1024.65
1021.33 1020.36 1018.36 1016.12 1015.95 1015.95 1015.73 1014.92 1014.72 1015.31 1015.82 1016.66 1017.36 1017.55 1017.35 1017.60 1017.98 1018.30 1018.97 1019.61 1020.15 1020.68 1021.44 1022.32 1023.04 1023.68 1024.16 1024.47 1024.76 1024.95 1024.92 1024.92 1024.94 1024.95 1024.85 1024.85 1024.72 1024.53 1024.39 1024.23 1024.04 1024.20 1024.44 1024.74
1021.59 1020.51 1018.61 1016.36 1015.61 1015.44 1015.46 1015.12 1014.56 1015.14 1016.03 1016.89 1017.33 1017.50 1016.47 1016.62 1017.30 1018.11 1018.93 1019.57 1020.14 1020.90 1021.57 1022.24 1022.89 1023.44 1023.81 1024.16 1024.44 1024.45 1024.58 1024.57 1024.52 1024.47 1024.35 1024.24 1024.12 1024.06 1024.05 1024.02 1024.02 1024.25 1024.65 1024.96
1021.24 1019.92 1017.96 1016.16 1015.82 1015.67 1015.70 1015.40 1014.91 1015.24 1015.79 1016.61 1016.80 1016.17 1016.27 1016.45 1017.16 1017.77 1018.66 1019.40 1020.21 1021.11 1021.93 1022.22 1022.66 1023.21 1023.67 1024.00 1024.10 1024.26 1024.43 1024.39 1024.25 1024.02 1023.87 1023.73 1023.60 1023.65 1023.67 1023.75 1023.98 1024.35 1024.69 1024.97
1020.92 1019.46 1017.51 1016.06 1016.11 1015.88 1014.99 1014.85 1014.97 1015.27 1015.45 1015.93 1015.70 1016.24 1016.65 1017.06 1017.60 1018.21 1018.86 1019.60 1020.04 1021.00 1021.71 1022.34 1022.83 1023.18 1023.58 1023.79 1023.95 1024.20 1024.31 1024.14 1023.84 1023.55 1023.41 1023.23 1023.13 1023.18 1023.38 1023.65 1023.92 1024.32 1024.62 1024.81
1018.88 1017.20 1016.01 1015.73 1015.20 1014.75 1014.92 1014.97 1014.93 1015.20 1015.30 1015.78 1016.24 1016.65 1017.06 1017.60 1018.12 1018.71 1019.35 1020.15 1020.63 1021.13 1021.86 1022.56 1022.95 1023.31 1023.46 1023.50 1023.92 1024.05 1024.06 1023.75 1023.53 1023.36 1023.03 1022.75 1022.74 1022.77 1023.10 1023.53 1023.80 1024.05 1024.22 1024.31
1017.79 1016.04 1015.55 1015.24 1014.82 1014.69 1014.60 1014.71 1014.65 1014.79 1015.03 1015.55 1015.81 1016.58 1017.42 1018.04 1018.79 1019.43 1020.07 1020.32 1021.04 1021.49 1022.05 1022.58 1022.96 1023.27 1023.51 1023.73 1023.83 1023.86 1023.73 1023.63 1023.50 1023.17 1022.83 1022.54 1022.60 1022.60 1022.77 1023.12 1023.44 1023.64 1023.68 1023.80
1016.64 1015.49 1014.92 1014.48 1014.33 1014.17 1014.15 1014.28 1014.47 1014.66 1014.94 1015.24 1015.86 1016.54 1017.30 1018.25 1019.10 1019.69 1020.37 1021.32 1021.52 1021.83 1022.23 1022.60 1023.01 1023.30 1023.48 1023.49 1023.56 1023.59 1023.63 1023.41 1023.18 1023.04 1022.76 1022.43 1022.35 1022.26 1022.48 1022.67 1022.92 1023.09 1023.18 1023.41
1015.07 1014.27 1014.54 1014.20 1013.84 1013.96 1014.12 1014.10 1014.20 1014.70 1015.15 1015.60 1016.04 1016.87 1017.80 1018.92 1019.68 1020.01 1020.54 1021.53 1021.75 1021.98 1022.27 1022.64 1023.00 1023.35 1023.32 1023.18 1023.39 1023.49 1023.33 1022.87 1022.61 1022.48 1022.34 1022.16 1022.07 1022.01 1022.22 1022.42 1022.71 1022.89 1022.99 1023.15
1014.31 1014.21 1014.23 1014.02 1014.07 1013.93 1014.23 1014.29 1014.40 1014.92 1015.54 1016.25 1017.09 1017.66 1018.56 1019.40 1020.12 1021.21 1021.52 1021.38 1021.72 1021.91 1022.24 1022.54 1022.84 1023.20 1022.87 1022.94 1023.17 1023.13 1022.93 1022.60 1022.28 1022.16 1022.01 1021.88 1021.76 1021.79 1021.68 1021.97 1022.26 1022.37 1022.42 1022.44
1014.56 1014.63 1014.51 1014.45 1014.62 1014.75 1014.90 1015.36 1015.65 1016.21 1016.83 1017.68 1018.89 1019.84 1020.11 1020.89 1021.20 1021.61 1021.56 1021.64 1021.71 1021.93 1022.24 1022.40 1022.66 1022.51 1022.26 1022.65 1022.70 1022.50 1022.33 1022.19 1021.91 1021.72 1021.62 1021.57 1021.49 1021.47 1021.53 1021.57 1021.64 1021.71 1021.79 1021.89
1015.26 1015.10 1015.28 1015.62 1015.89 1016.20 1016.49 1016.75 1017.18 1018.06 1018.89 1019.07 1019.71 1020.60 1021.22 1021.44 1021.53 1021.55 1021.74 1021.78 1021.93 1022.08 1022.16 1022.31 1022.09 1021.66 1022.02 1022.18 1022.12 1021.91 1021.68 1021.44 1021.43 1021.20 1021.12 1021.12 1021.10 1021.04 1021.05 1021.13 1021.25 1021.23 1021.25 1021.37
1016.45 1016.33 1016.51 1016.83 1017.07 1017.68 1018.04 1018.52 1018.93 1019.73 1020.03 1020.67 1021.00 1021.04 1021.02 1021.42 1021.42 1021.55 1021.74 1021.83 1022.01 1021.88 1022.10 1022.02 1021.55 1021.51 1021.64 1021.59 1021.55 1021.38 1021.18 1021.16 1021.01 1020.68 1020.50 1020.53 1020.50 1020.43 1020.46 1020.50 1020.54 1020.54 1020.52 1020.47
1017.04 1017.56 1018.03 1018.50 1018.73 1019.21 1019.69 1020.15 1020.41 1020.88 1021.04 1021.16 1021.07 1021.24 1021.26 1021.39 1021.60 1021.66 1021.64 1021.66 1021.75 1021.86 1021.76 1021.53 1021.27 1021.05 1021.04 1021.01 1020.97 1020.80 1020.70 1020.62 1020.54 1020.27 1020.02 1020.00 1019.98 1019.83 1019.64 1019.65 1019.73 1019.75 1019.65 1019.69
1018.61 1018.87 1019.20 1019.64 1020.02 1020.43 1020.85 1021.02 1021.16 1021.19 1021.17 1021.15 1021.35 1021.46 1021.52 1021.63 1021.61 1021.64 1021.69 1021.84 1021.78 1021.45 1021.08 1020.88 1020.76 1020.56 1020.45 1020.38 1020.26 1020.08 1020.01 1019.95 1019.87 1019.65 1019.46 1019.30 1019.13 1018.95 1018.87 1018.88 1018.88 1018.88 1018.82 1018.84
1019.80 1019.94 1020.30 1020.55 1020.71 1020.87 1021.04 1021.11 1021.30 1021.43 1021.55 1021.65 1021.70 1021.75 1021.84 1021.81 1021.79 1021.74 1021.74 1021.69 1021.32 1020.87 1020.00 1019.96 1019.84 1019.89 1019.90 1019.75 1019.70 1019.61 1019.42 1019.27 1019.06 1018.84 1018.69 1018.49 1018.28 1018.09 1017.97 1017.99 1017.98 1017.98 1018.00 1017.97
1020.57 1020.71 1020.90 1021.10 1021.26 1021.45 1021.62 1021.76 1021.89 1021.88 1021.86 1021.92 1021.98 1021.89 1021.66 1021.36 1021.50 1021.49 1021.48 1021.19 1020.62 1020.03 1019.61 1019.49 1019.48 1019.40 1019.21 1019.00 1018.92 1018.82 1018.69 1018.40 1018.21 1017.97 1017.78 1017.60 1017.42 1017.18 1017.04 1017.05 1017.05 1017.05 1017.02 1016.91
1021.38 1021.65 1021.83 1021.92 1022.04 1022.16 1022.17 1022.13 1022.19 1022.15 1022.11 1022.16 1022.17 1021.99 1021.87 1021.41 1021.25 1021.24 1021.06 1020.44 1019.17 1019.04 1018.94 1018.89 1018.86 1018.61 1018.44 1018.35 1018.28 1018.12 1017.90 1017.61 1017.33 1017.09 1016.85 1016.70 1016.57 1016.36 1016.14 1016.02 1015.95 1015.89 1015.75 1015.63
1021.63 1021.84 1022.15 1022.47 1022.72 1022.82 1022.78 1022.59 1022.53 1022.49 1022.30 1022.22 1022.07 1022.03 1022.00 1021.34 1020.88 1020.53 1020.19 1019.79 1018.30 1018.29 1018.25 1018.07 1017.86 1017.64 1017.52 1017.42 1017.33 1017.18 1017.01 1016.69 1016.41 1016.26 1016.11 1015.91 1015.80 1015.66 1015.52 1015.41 1015.25 1015.10 1014.93 1014.73
1022.00 1022.32 1022.66 1022.93 1023.19 1023.27 1023.20 1023.20 1023.11 1023.00 1022.82 1022.64 1022.42 1022.05 1021.67 1021.13 1020.76 1020.27 1019.18 1018.44 1018.39 1017.92 1017.64 1017.22 1016.91 1016.75 1016.59 1016.52 1016.50 1016.49 1016.23 1016.02 1015.59 1015.54 1015.40 1015.37 1015.36 1015.34 1015.23 1015.06 1014.87 1014.64 1014.33 1014.04
1022.57 1022.91 1023.30 1023.61 1023.81 1023.72 1023.82 1023.82 1023.56 1023.41 1023.09 1022.58 1022.37 1021.98 1021.51 1020.74 1019.89 1019.85 1019.38 1018.70 1018.02 1017.39 1016.84 1016.42 1015.98 1015.75 1015.66 1015.58 1015.66 1015.76 1015.82 1015.80 1016.04 1015.99 1015.81 1015.74 1015.67 1015.59 1015.35 1015.15 1014.84 1014.49 1014.05 1013.61
1023.61 1023.94 1024.20 1024.35 1024.48 1024.72 1024.83 1024.68 1024.21 1023.66 1023.09 1022.66 1022.29 1021.74 1021.21 1020.87 1020.68 1019.37 1018.89 1018.24 1017.51 1016.94 1016.27 1015.64 1015.15 1014.91 1015.05 1015.35 1015.80 1016.37 1016.69 1016.92 1017.11 1017.08 1017.07 1016.91 1016.81 1016.72 1016.54 1016.25 1015.86 1015.32 1014.68 1013.69
1024.57 1024.90 1025.18 1025.54 1025.74 1025.93 1025.86 1025.57 1025.20 1024.56 1024.05 1023.30 1022.82 1022.20 1021.67 1021.19 1020.34 1019.41 1018.48 1017.68 1016.84 1016.17 1015.45 1015.49 1015.71 1015.86 1015.55 1015.92 1016.53 1017.06 1017.43 1017.68 1017.80 1017.80 1017.75 1017.57 1017.38 1017.09 1016.80 1016.45 1015.96 1015.32 1014.65 1013.83
1025.85 1026.36 1026.43 1026.53 1026.86 1026.92 1026.95 1026.68 1026.12 1025.54 1025.04 1024.44 1023.52 1022.94 1022.21 1021.22 1020.52 1019.79 1018.90 1017.98 1017.04 1016.53 1016.70 1017.00 1017.34 1017.75 1017.05 1016.88 1017.51 1018.01 1018.31 1018.50 1018.63 1018.55 1018.36 1018.12 1017.80 1017.43 1016.98 1016.43 1015.79 1015.01 1014.11 1013.20
Wind_Speed
1 1 2 2 4 8 7 5 7 4 8 6 9 12 11 9 12 14 14 12 11 12 11 11 8 6 5 4 3 4 3 4 5 5 6 6 8 8 7 7 6 7 7 4
4 1 3 3 5 7 6 3 10 4 11 9 1 7 12 14 15 15 14 13 12 13 13 9 8 7 5 4 5 3 5 6 5 6 6 7 8 9 8 7 6 5 6 3
4 3 3 6 10 10 6 5 7 9 8 6 6 11 15 16 16 15 14 14 13 14 13 12 10 8 6 5 3 4 6 7 7 6 7 7 9 9 9 8 7 6 3 2
2 1 2 4 2 2 9 6 12 4 4 6 3 3 7 13 17 15 14 13 12 11 11 11 9 6 5 4 4 5 7 8 7 7 8 7 8 9 8 8 8 5 4 5
3 3 6 5 3 6 6 6 10 12 5 3 4 2 6 14 13 15 15 11 10 11 9 7 9 6 5 4 4 5 7 8 8 8 8 8 9 8 8 7 5 4 3 4
3 2 5 5 2 3 3 5 1 8 6 8 8 4 6 12 14 12 9 7 7 7 6 8 7 6 4 3 4 6 7 8 9 9 9 9 8 7 6 5 4 3 4 3
3 4 8 6 1 2 3 5 1 6 7 12 8 7 2 4 7 11 9 8 8 9 6 6 6 5 3 2 6 6 6 8 9 9 9 9 8 5 5 5 3 4 4 3
3 1 7 5 2 5 5 2 2 6 10 14 12 6 4 4 7 10 12 12 11 10 7 6 5 3 2 5 5 5 7 9 10 9 8 8 7 5 2 3 4 4 4 4
8 6 4 6 5 2 2 3 3 4 6 10 7 7 7 8 9 10 12 10 8 8 8 4 3 1 4 5 4 6 9 10 9 10 9 7 6 4 3 4 4 4 4 5
1 2 8 10 9 8 6 11 6 7 6 9 12 10 8 9 10 10 9 10 6 7 5 2 0 2 3 3 5 7 8 9 9 9 10 5 4 3 4 5 4 4 5 5
5 8 5 8 9 9 8 5 8 5 6 9 10 11 13 12 10 10 9 4 4 4 3 1 2 4 3 5 5 5 6 7 8 6 8 7 5 4 5 5 5 4 4 5
6 9 4 6 4 3 4 6 6 6 3 4 7 12 13 11 10 7 6 5 5 4 3 2 3 5 5 4 3 4 6 6 4 5 5 6 5 5 8 8 6 10 9 7
6 1 4 5 7 5 6 6 2 3 5 10 10 13 14 11 6 3 4 6 5 4 3 2 4 6 4 4 4 6 7 7 5 5 4 5 5 5 6 5 5 8 10 11
4 2 5 1 4 7 5 8 14 16 16 16 15 13 10 7 2 7 8 5 3 3 3 3 5 6 4 4 6 7 7 8 6 5 5 5 4 5 6 7 6 5 8 8
9 4 3 6 8 9 10 12 17 16 14 15 12 9 4 6 9 5 4 3 3 4 5 6 6 4 4 5 6 7 6 6 5 5 5 5 4 5 6 6 6 6 6 5
7 10 11 11 12 12 13 14 15 10 10 8 5 7 7 6 5 4 3 3 4 5 7 6 4 7 5 6 7 7 7 8 8 6 5 5 5 5 5 6 6 7 7 8
2 6 9 10 12 13 13 10 8 5 3 4 6 3 4 4 3 5 5 2 4 7 6 5 8 7 6 6 6 5 5 6 10 6 5 6 7 8 7 6 7 8 8 7
14 14 12 11 10 10 6 4 3 5 4 3 3 3 3 4 5 5 4 4 6 7 9 9 8 7 8 8 7 5 5 6 6 6 6 7 8 9 8 7 8 8 8 8
11 12 10 10 8 6 5 4 2 3 3 3 3 4 3 5 4 4 5 6 7 7 9 5 6 6 8 9 8 6 6 7 7 7 7 9 8 9 9 8 8 9 9 8
6 4 4 3 4 3 2 2 3 3 3 2 3 4 5 5 3 4 4 7 9 7 5 7 7 7 8 8 8 7 7 7 8 7 7 8 8 8 9 10 9 9 9 9
5 4 3 4 5 4 4 3 4 5 5 3 4 5 5 8 5 4 8 8 8 7 8 7 7 7 6 6 6 6 7 8 8 8 8 8 8 9 9 9 9 9 9 9
1 2 3 4 4 5 5 4 4 5 6 5 4 5 6 9 7 6 8 10 8 6 6 7 7 9 7 8 6 6 7 8 8 7 7 7 6 7 7 7 7 7 8 8
1 2 3 5 4 4 4 5 5 4 5 6 7 8 8 8 7 7 10 3 6 8 7 7 10 12 12 6 6 6 7 9 9 7 5 4 5 6 6 7 7 7 8 9
4 6 4 4 4 7 11 12 11 9 9 8 8 9 7 9 11 6 7 14 17 15 11 10 12 14 11 6 5 4 3 4 6 8 8 9 6 7 7 8 9 9 9 11
7 8 8 9 10 8 10 11 9 9 10 11 10 10 10 8 6 12 12 11 16 13 12 16 16 11 3 4 5 4 4 5 5 5 5 5 5 6 6 7 8 10 10 11
10 7 7 9 8 8 8 8 8 9 10 10 9 9 10 10 10 11 12 16 14 17 9 4 6 4 6 7 7 6 5 5 5 5 5 5 6 6 7 8 9 10 10 11
9 9 6 5 6 7 7 7 8 9 9 10 12 10 11 12 12 14 15 14 13 7 7 7 8 8 6 8 8 7 6 5 7 6 6 6 7 7 8 9 10 10 10 10
Wind_Direction
96 18 251 223 180 186 204 178 190 225 214 243 230 217 202 180 163 167 177 176 177 179 186 189 184 177 181 179 198 226 257 266 278 301 306 315 328 324 314 305 310 311 298 311
183 347 13 278 237 205 230 228 257 250 268 220 355 152 176 186 179 185 188 192 192 195 199 194 195 197 189 208 226 229 250 262 284 282 300 323 322 314 310 310 298 299 307 315
241 2 12 319 222 197 190 205 198 215 241 174 198 205 199 190 193 194 198 199 198 201 200 204 198 195 202 215 216 243 256 265 268 285 300 305 314 310 298 298 291 298 271 220
162 28 252 243 164 179 219 233 217 261 217 203 240 201 194 199 195 201 200 202 204 201 203 206 188 190 203 216 252 272 273 272 278 286 283 295 306 302 298 296 292 280 211 175
154 207 304 288 195 181 182 280 210 222 199 161 114 108 254 207 207 205 201 201 202 199 197 179 184 194 212 258 284 275 277 285 284 284 276 282 294 298 301 298 300 253 202 158
134 176 230 246 259 196 167 284 280 203 158 165 153 175 243 190 199 202 191 188 188 177 157 161 172 172 195 244 277 294 302 297 295 290 268 272 286 290 295 286 284 194 158 134
147 227 283 253 291 169 106 255 215 188 176 168 198 206 143 154 178 176 167 148 126 134 157 154 152 152 177 283 290 302 298 301 297 289 274 274 276 269 286 279 227 180 170 175
109 179 272 186 130 167 221 259 240 204 198 198 216 159 175 148 140 139 141 142 135 136 136 134 133 124 286 280 300 310 310 305 303 303 299 281 254 260 259 220 199 189 198 225
194 218 235 218 235 227 171 249 242 227 238 231 224 201 155 147 140 133 131 125 128 127 121 118 103 131 269 283 318 316 310 313 314 317 307 277 242 221 177 192 206 210 230 245
113 229 234 234 262 258 238 241 241 231 247 202 218 172 162 141 136 127 128 122 130 108 120 135 19 326 273 297 317 315 314 318 317 320 324 280 243 214 198 200 211 240 256 257
262 276 275 260 236 254 265 246 257 249 237 225 190 172 155 145 132 130 128 85 149 145 158 197 336 305 310 316 316 311 309 310 316 306 316 292 259 235 207 205 213 252 265 255
228 240 196 249 280 274 256 260 262 225 193 149 162 146 135 124 125 117 132 175 166 160 172 260 289 295 299 317 300 287 286 290 294 297 293 279 261 241 219 240 219 231 241 230
254 67 220 262 277 264 274 310 303 166 136 124 120 121 115 111 98 104 214 174 185 200 214 258 288 285 309 304 268 274 281 287 292 292 291 289 255 234 238 205 248 257 246 236
258 248 280 215 311 5 61 83 89 93 96 94 87 69 74 71 91 225 217 208 193 203 237 265 269 278 309 267 268 270 273 266 276 276 278 271 259 250 238 237 245 254 233 245
357 307 4 77 59 65 85 98 92 91 85 83 78 93 134 201 233 234 228 207 222 245 259 251 247 290 266 267 276 280 275 277 267 265 262 253 262 259 243 232 243 256 261 250
26 50 58 72 83 78 87 88 88 79 90 92 135 201 216 235 249 247 227 223 207 239 247 246 266 262 264 275 281 282 280 269 262 265 268 262 240 215 224 234 248 258 258 250
117 58 68 75 77 81 80 82 85 98 154 232 237 248 241 239 252 254 262 256 240 254 254 251 255 270 265 261 263 270 278 286 282 262 261 258 249 240 231 235 246 253 255 242
78 77 81 90 93 91 90 102 137 210 243 300 315 273 244 219 245 269 287 294 273 273 257 247 246 257 250 244 245 238 245 263 265 263 261 261 257 246 243 246 250 251 255 254
88 97 104 117 134 154 178 215 260 311 330 333 319 299 276 259 260 274 301 292 278 273 271 233 231 242 247 252 254 261 263 262 262 259 260 264 262 254 240 241 248 247 250 254
97 103 104 77 45 33 14 13 317 309 313 261 261 279 300 295 296 282 277 272 264 257 274 268 268 262 258 264 255 264 259 253 259 264 262 262 263 258 245 239 247 250 248 246
72 50 44 33 13 8 9 350 346 349 344 348 329 307 298 303 298 268 274 276 270 235 244 250 252 256 259 261 260 253 257 260 260 263 267 264 270 260 250 243 243 244 249 249
105 46 6 7 8 349 3 349 352 339 344 337 314 301 300 288 284 270 236 248 281 240 251 262 255 248 249 246 247 251 265 262 255 262 267 256 264 272 272 267 265 265 265 263
66 47 32 29 18 353 347 29 4 346 339 339 333 329 320 307 304 307 307 297 270 281 275 268 259 249 249 237 235 249 264 274 253 255 255 263 274 283 286 290 288 285 283 282
54 45 44 40 51 34 19 0 356 359 354 346 344 336 325 324 318 310 299 303 303 300 289 279 268 259 244 237 232 262 324 22 19 3 4 5 355 337 323 317 305 298 291 287
61 59 51 43 39 27 9 357 343 343 341 339 334 325 325 324 292 311 309 299 302 296 296 294 285 267 152 110 79 50 31 31 21 16 13 9 2 349 335 328 318 313 307 299
54 48 47 44 35 15 359 351 345 342 340 332 330 332 332 323 312 307 305 306 300 300 290 16 43 45 71 69 68 59 49 35 22 19 4 355 343 331 323 319 313 307 301 297
59 38 27 29 21 9 0 353 350 344 340 329 319 324 320 319 322 318 317 316 314 2 45 48 41 17 46 73 65 54 46 36 27 10 1 349 340 330 324 319 311 306 297 293